Find Hongtu 2-12

NORAD ID: 62336 Int'l Des: 2024-241 Owner: PIESAT Country: CN operational
LEOCIRCULARRETROGRADESSO

リアルタイム位置

3D地球を読み込み中...

Hongtu 2-12について

説明を読み込み中...

次回通過

Passes for default location (London). Set your location on the main map for personalized predictions.

高度履歴

Loading altitude history...

軌道要素

1 62336U 24241D 26105.27982775 .00004344 00000-0 24604-3 0 9998
2 62336 97.5216 53.5130 0001784 93.5268 266.6167 15.13536673 73286
Epoch: Apr 15, 2026 • Age: 5 hours

現在のステータス

高度 544.3 km
速度 7.59 km/s
衛星直下点 -46.24°S, 48.89°E
打ち上げ日 Dec 16, 2024
運用期間 1.3 years
タイプ other

技術仕様

分類 Payload
質量 270.00 kg
乾燥質量 270.00 kg
総質量 270.00 kg
長さ 1.00 m
直径 1.00 m
スパン 4.00 m
形状 Box + 2 Pan
製造者 YINHE
バスタイプ Piesat
フェーズステータス In Orbit
所有者/国 PIESAT/CN

Most Searched